STARLINK-35285, 65807

Orbit data source: Space-Track

STARLINK-35285, 65807 is a payload satellite owned by SpaceX/Seattle (US) in SSO that was launched on Fri, 26 Sep 2025 UTC via an FALCON 9 launch vehicle from the Air Force Western Test Range (AFWTR). Payload-class satellites include a variety of spacecraft equipped with specific instruments for various scientific and technological missions. These include communications satellites like Starlink; space stations such as the ISS; scientific satellites like the Hubble; Earth observation satellites from companies like Planet Labs, Umbra, and HawkEye 360; GPS; miniature CubeSats for education and research; and military/defense satellites.

Loading next visibility...
Identifier
65807, 2025-218S
Orbit
SSO
Country
Flag of USUS
Related business
Manufacturer
SpaceX/Seattle
Mission
Operational Commercial Communications
Bus & Motor
STARLINK V2MO, Unknown motor
Mass
575 kg wet, ~530 kg dry
Launch date (UTC)
2025-09-26 (2 months ago)
Launch vehicle
FALCON 9
Launch site
Air Force Western Test Range (AFWTR)
Object type
Payload
Rocket body
Debris
Shape & HBR
Box + 2 Pan, 17.7 m
Radar Cross Section
36.964 m²

Expand to show TLE details & history
Last TLE update: 15 hours ago

TLE from 15 hours ago
0 STARLINK-35285
1 65807U 25218S   25340.61413162  .00022179  00000-0  15346-2 0  9994
2 65807  97.6011 201.1971 0003240  79.9660 280.1932 15.05694998 10966
Epoch: 2025-12-06T14:44Z
TLE epoch observation values (Epoch: 2025-12-06T14:44:20.971Z)
Latitude
-0.00008°
Longitude
-95.52961°
Altitude
552.042 km
Speed
7.586 km/s
True Right ascension
13h 24m 47s
True Declination
0° 00' 00"
Sunlit
Object was in daylight at epoch
Visualization orbit readout
Latitude
Unknown
Longitude
Unknown
Altitude
Unknown
Speed
Unknown
Apparent Right ascension
Unknown
Apparent Declination
Unknown
Sunlit
N/A
Visualization observer readout
Local Sidereal Time
04:00:57
Azimuth
Unknown
Elevation
Unknown
Doppler factor
Unknown
Orbital elements
Apogee altitude
548.61 km
Perigee altitude
544.123 km
Semi-major axis
6,924.503 km
Eccentricity
0.00032
Inclination
97.6011°
RAAN
201.1971°
Arg. of periapsis
79.966°
True anomaly
280.15666°
Mean anomaly
280.1932°
Eccentric anomaly
280.17493°
Mean motion
3.76669 °/min
Orbital period
95.57 mins
BSTAR
0.0015346
Loading maneuver chart data...
Computing Atmospheric mass density...
Loading historical data...
Loading historical data...
Loading historical data...
Loading historical data...
Loading historical data...
Loading historical data...
Loading historical data...

Documentation

Showing up to 5 results
|